sat.trackr.live / text

‹ back to catalog

STARLINK-32494

NORAD 62053 · 2024-216X

PAYLOAD ACTIVE UNKNOWN

§ Identity

Operator
Country
US
Launch date
2024-11-21
Launch site
AFETR
Launch vehicle
Mass (kg)
RCS (m²)

Purposes: comms

External: N2YO · Heavens-Above · Gunter

§ Orbital elements

Epoch: 2026-09-21T07:45:27.345024Z

Period
94.27 min
Inclination
43.0019°
Eccentricity
0.0001623
Mean motion
15.27590761 rev/d
Perigee alt
481.9 km
Apogee alt
484.1 km
Semi-major
6,861.2 km
B*
3.7542e-4
RAAN
238.5510°
Arg perigee
280.2232°
Mean anomaly
79.8436°
Rev number
10,371

§ Raw data

STARLINK-324941 62053U 24216X   26264.32323316  .00010086  00000+0  37542-3 0  99922 62053  43.0019 238.5510 0001623 280.2232  79.8436 15.27590761103712

JSON: /api/v1/satellites/62053 · /tle

For live sub-satellite position, see the globe view (requires WebGL).

§ Visibility from observer

Set your observer location to see the next 7 days of passes ≥ 10°. The values pass through the URL so the page stays shareable.

No JS? Fill the form by hand. The geolocation button needs JavaScript.